Content
SEND FEEDBACK

Daily
Averages
Monthly
Summary
United States of America

YIGO, GUAM


Home > North America > United States > Guam
Elevation: 530 feet     Latitude: 13 32N     Longitude: 144 53E

WEATHER
 
SELECT A DAY
Number of Records: 208,997;   Date Range: 1/1/95 - 7/26/14
 
SHARE

PRINT THIS DATA

[ ← Previous Day ]
WEATHER ALMANAC - APRIL 28, 2013
[ Next Day → ]
[ °C ]   °F
Weather ElementAverageHighLow
Temperature86.2 °F93 °F (12:54 pm)82 °F (3:54 am)
Dewpoint73.8 °F75 °F (1:54 am)71.1 °F (12:54 pm)
Humidity67.1 %79 % (3:54 am)49 % (12:54 pm)
Barometer29.89 in29.93 in (9:54 pm)29.83 in (3:54 pm)
Wind Speed11.1 mph15 mph (1:54 pm)
Wind Gust21.9 mph (11:54 am)
Weather ElementAverage
Visibility10 mi
Wind DirectionENE (71.3 °)

Weather ElementTotal
Precipitation---
Cooling Degree Days22.5 (Base 65)
Growing Degree Days37.5 (Base 50)
Averaged from 23 records on April 28, 2013
WEATHER CONDITIONS BREAKOUT
WIND DIRECTION BREAKOUT
WEATHER BY HOUR - APRIL 28, 2013
[ °C ]   °F
Local TimeTemperatureDewpointHumidityBarometerVisibilityWind DirectionWind SpeedGust SpeedPrecipitationEventsConditions
1:54 AM82.9 °F75.0 °F77 %29.88 in10.0 miEast (80°)6.9 mphClear
2:54 AM82.9 °F73.9 °F74 %29.87 in10.0 miENE (70°)9.2 mphClear
3:54 AM82.0 °F75.0 °F79 %29.86 in10.0 miENE (70°)8.1 mphClear
4:54 AM82.0 °F75.0 °F79 %29.88 in10.0 miENE (70°)9.2 mphClear
5:54 AM82.0 °F73.9 °F76 %29.89 in10.0 miEast (80°)6.9 mphPartly Cloudy
6:54 AM82.9 °F73.9 °F74 %29.91 in10.0 miEast (80°)8.1 mphClear
7:54 AM84.9 °F75.0 °F72 %29.92 in10.0 miENE (60°)12.7 mphPartly Cloudy
8:54 AM88.0 °F72.0 °F59 %29.92 in10.0 miEast (80°)12.7 mphPartly Cloudy
9:54 AM89.1 °F73.9 °F61 %29.92 in10.0 miEast (90°)12.7 mphPartly Cloudy
10:54 AM91.0 °F72.0 °F53 %29.91 in10.0 miENE (70°)13.8 mphPartly Cloudy
11:54 AM91.9 °F72.0 °F52 %29.90 in10.0 miENE (60°)12.7 mph21.9 mphScattered Clouds
12:54 PM93.0 °F71.1 °F49 %29.88 in10.0 miEast (80°)13.8 mph21.9 mphPartly Cloudy
1:54 PM90.0 °F73.9 °F59 %29.86 in10.0 miENE (70°)15.0 mph0.00 inRainLight Rain
2:54 PM91.0 °F73.0 °F55 %29.84 in10.0 miENE (70°)15.0 mph20.7 mph0.00 inScattered Clouds
3:54 PM90.0 °F73.0 °F57 %29.83 in10.0 miENE (60°)13.8 mphScattered Clouds
4:54 PM89.1 °F73.0 °F59 %29.84 in10.0 miENE (70°)12.7 mphClear
5:54 PM86.0 °F75.0 °F70 %29.86 in10.0 miENE (70°)12.7 mph0.00 inRainLight Rain
6:54 PM84.9 °F73.9 °F69 %29.88 in10.0 miEast (80°)10.4 mphPartly Cloudy
7:54 PM84.0 °F73.9 °F72 %29.89 in10.0 miENE (70°)9.2 mphPartly Cloudy
8:54 PM84.0 °F73.9 °F72 %29.91 in10.0 miENE (70°)9.2 mphPartly Cloudy
9:54 PM84.0 °F75.0 °F74 %29.93 in10.0 miENE (60°)10.4 mphMostly Cloudy
10:54 PM84.0 °F75.0 °F74 %29.93 in10.0 miENE (60°)9.2 mphPartly Cloudy
11:54 PM82.9 °F75.0 °F77 %29.91 in10.0 miENE (70°)11.5 mphPartly Cloudy
Hourly data recorded from PGUM, located miles away from Yigo, Guam







STORIES FROM OUR PARTNERS